JBU1080 EGPH-KBOS

Flight info

Callsign JBU1080
Flight time N/A
Altitude 34000
Route N0444F340 GOSAM DCT GOW Q602 FYNER DCT BRUCE DCT AMLAD DCT PIKIL/M076F360 NATB NEEKO/N0449F360 N622E TAFFY DCT AJJAY OOSHN5
Aircraft A21N/M-SDE2E3FGHIRWXY/LB1

Departure

Time 2026-04-20 14:00
Airport Edinburgh Airport (EGPH)

Arrival

Time N/A
Airport Boston Logan International Airport (KBOS)
Time Latitude Longitude Altitude Speed Heading
2026-04-20 13:05 55.94702 -3.36626 122 ft 0 kts 89°
2026-04-20 13:46 55.94703 -3.36663 118 ft 0 kts 104°
2026-04-20 13:46 55.94706 -3.36701 118 ft 0 kts 63°
2026-04-20 13:46 55.94693 -3.36734 118 ft 0 kts 27°
2026-04-20 13:47 55.94669 -3.36739 119 ft 0 kts 351°
2026-04-20 13:47 55.94649 -3.36735 119 ft 0 kts 359°
2026-04-20 13:53 55.94650 -3.36735 119 ft 2 kts 359°
2026-04-20 13:53 55.94691 -3.36736 118 ft 7 kts 359°
2026-04-20 13:53 55.94743 -3.36738 122 ft 9 kts 358°
2026-04-20 13:53 55.94808 -3.36769 120 ft 10 kts 349°
2026-04-20 13:54 55.94882 -3.36795 118 ft 11 kts 336°
2026-04-20 13:54 55.94918 -3.36912 119 ft 13 kts 248°
2026-04-20 13:54 55.94871 -3.37053 117 ft 14 kts 233°
2026-04-20 13:54 55.94814 -3.37198 121 ft 15 kts 249°
2026-04-20 13:55 55.94766 -3.37367 119 ft 16 kts 237°
2026-04-20 13:55 55.94706 -3.37538 120 ft 17 kts 238°
2026-04-20 13:55 55.94647 -3.37723 118 ft 18 kts 240°
2026-04-20 13:55 55.94580 -3.37913 119 ft 18 kts 238°
2026-04-20 13:56 55.94513 -3.38111 120 ft 19 kts 239°
2026-04-20 13:56 55.94443 -3.38318 120 ft 20 kts 239°
2026-04-20 13:56 55.94371 -3.38529 118 ft 20 kts 239°
2026-04-20 13:56 55.94332 -3.38644 118 ft 8 kts 239°
2026-04-20 13:57 55.94302 -3.38734 118 ft 9 kts 239°
2026-04-20 13:57 55.94284 -3.38847 121 ft 10 kts 286°
2026-04-20 13:57 55.94320 -3.38905 119 ft 0 kts 323°
2026-04-20 13:58 55.94350 -3.38944 117 ft 8 kts 327°
2026-04-20 13:58 55.94403 -3.38965 119 ft 9 kts 18°
2026-04-20 13:58 55.94448 -3.38884 118 ft 10 kts 58°
2026-04-20 13:59 55.94449 -3.38879 119 ft 0 kts 58°
2026-04-20 13:59 55.94468 -3.38822 119 ft 28 kts 64°
2026-04-20 13:59 55.94685 -3.38197 115 ft 93 kts 62°
2026-04-20 14:00 55.95141 -3.36869 119 ft 154 kts 58°
2026-04-20 14:00 55.95705 -3.35275 931 ft 145 kts 60°
2026-04-20 14:00 55.96320 -3.33704 1431 ft 170 kts 45°
2026-04-20 14:00 55.97258 -3.32232 1879 ft 186 kts 43°
2026-04-20 14:01 55.98270 -3.30621 2372 ft 203 kts 44°
2026-04-20 14:01 55.99382 -3.28835 2672 ft 228 kts 43°
2026-04-20 14:01 56.00807 -3.27301 3057 ft 250 kts 17°
2026-04-20 14:01 56.02555 -3.27223 3778 ft 259 kts 347°
2026-04-20 14:02 56.04110 -3.28777 4521 ft 265 kts 314°
2026-04-20 14:02 56.05020 -3.31620 5318 ft 267 kts 282°
2026-04-20 14:02 56.04991 -3.34895 6088 ft 266 kts 251°
2026-04-20 14:02 56.04046 -3.37688 6835 ft 266 kts 222°
2026-04-20 14:03 56.02594 -3.39739 7553 ft 269 kts 221°
2026-04-20 14:03 56.01562 -3.42531 8200 ft 276 kts 252°
2026-04-20 14:03 56.01116 -3.45919 8897 ft 283 kts 259°
2026-04-20 14:03 56.00744 -3.49423 9692 ft 289 kts 258°
2026-04-20 14:04 56.00330 -3.52981 10373 ft 295 kts 257°
2026-04-20 14:04 55.99947 -3.56650 10796 ft 308 kts 266°
2026-04-20 14:04 56.00208 -3.60514 11063 ft 323 kts 286°
2026-04-20 14:04 56.00616 -3.64536 11477 ft 333 kts 276°
2026-04-20 14:05 56.00813 -3.68690 12078 ft 337 kts 275°
2026-04-20 14:05 56.01022 -3.72876 12725 ft 341 kts 276°
2026-04-20 14:05 56.01264 -3.77106 13364 ft 343 kts 276°
2026-04-20 14:05 56.01528 -3.81378 14013 ft 347 kts 276°
2026-04-20 14:06 56.01805 -3.85699 14568 ft 351 kts 276°
2026-04-20 14:06 56.02082 -3.90042 15202 ft 352 kts 276°
2026-04-20 14:06 56.02363 -3.94410 15806 ft 355 kts 277°
2026-04-20 14:06 56.02651 -3.98793 16450 ft 356 kts 277°
2026-04-20 14:07 56.02940 -4.03197 17095 ft 357 kts 277°
2026-04-20 14:07 56.03224 -4.07620 17703 ft 360 kts 277°
2026-04-20 14:07 56.03511 -4.12083 18292 ft 362 kts 277°
2026-04-20 14:07 56.03791 -4.16505 18811 ft 364 kts 277°
2026-04-20 14:08 56.04080 -4.21026 19289 ft 366 kts 277°
2026-04-20 14:08 56.04359 -4.25562 19766 ft 367 kts 277°
2026-04-20 14:08 56.04637 -4.30068 20220 ft 368 kts 277°
2026-04-20 14:08 56.04911 -4.34671 20660 ft 370 kts 276°
2026-04-20 14:09 56.05173 -4.39267 21214 ft 371 kts 277°
2026-04-20 14:09 56.05443 -4.43868 21741 ft 373 kts 277°
2026-04-20 14:09 56.05717 -4.48480 22285 ft 374 kts 277°
2026-04-20 14:09 56.05993 -4.53134 22770 ft 377 kts 277°
2026-04-20 14:10 56.06287 -4.57820 23249 ft 379 kts 278°
2026-04-20 14:10 56.06580 -4.62504 23799 ft 380 kts 278°
2026-04-20 14:10 56.06864 -4.67221 24214 ft 381 kts 278°
2026-04-20 14:10 56.07144 -4.71955 24571 ft 384 kts 278°
2026-04-20 14:11 56.07420 -4.76733 24906 ft 387 kts 278°
2026-04-20 14:11 56.07603 -4.79911 25132 ft 389 kts 277°
2026-04-20 14:11 56.07960 -4.86390 25584 ft 393 kts 278°
2026-04-20 14:11 56.08145 -4.89638 25804 ft 395 kts 278°
2026-04-20 14:12 56.08425 -4.94547 26129 ft 398 kts 278°
2026-04-20 14:12 56.08706 -4.99486 26438 ft 401 kts 278°
2026-04-20 14:12 56.08986 -5.04469 26773 ft 404 kts 278°
2026-04-20 14:12 56.09265 -5.09506 27091 ft 407 kts 278°
2026-04-20 14:13 56.09540 -5.14568 27377 ft 409 kts 278°
2026-04-20 14:13 56.09815 -5.19665 27714 ft 411 kts 278°
2026-04-20 14:13 56.10090 -5.24780 28021 ft 414 kts 278°
2026-04-20 14:13 56.10364 -5.29930 28314 ft 416 kts 278°
2026-04-20 14:14 56.10636 -5.35116 28596 ft 419 kts 278°
2026-04-20 14:14 56.10900 -5.40276 28875 ft 422 kts 278°
2026-04-20 14:14 56.11164 -5.45520 29151 ft 424 kts 278°
2026-04-20 14:14 56.11432 -5.50798 29435 ft 427 kts 278°
2026-04-20 14:15 56.11702 -5.56118 29707 ft 429 kts 278°
2026-04-20 14:15 56.11975 -5.61459 29967 ft 432 kts 278°
2026-04-20 14:15 56.12254 -5.66839 30215 ft 434 kts 278°
2026-04-20 14:15 56.12533 -5.72235 30417 ft 436 kts 279°
2026-04-20 14:16 56.12811 -5.77672 30654 ft 438 kts 279°
2026-04-20 14:16 56.13085 -5.83119 30879 ft 440 kts 278°
2026-04-20 14:16 56.13351 -5.88606 31085 ft 442 kts 278°
2026-04-20 14:16 56.13618 -5.94113 31291 ft 443 kts 278°
2026-04-20 14:17 56.13887 -5.99628 31484 ft 445 kts 278°
2026-04-20 14:17 56.14156 -6.05180 31671 ft 447 kts 278°
2026-04-20 14:17 56.14420 -6.10739 31852 ft 448 kts 278°
2026-04-20 14:17 56.14677 -6.16330 32079 ft 449 kts 278°
2026-04-20 14:18 56.14933 -6.21915 32289 ft 449 kts 278°
2026-04-20 14:18 56.15187 -6.27510 32454 ft 451 kts 278°
2026-04-20 14:18 56.15441 -6.33112 32648 ft 451 kts 278°
2026-04-20 14:18 56.15695 -6.38717 32874 ft 451 kts 277°
2026-04-20 14:19 56.15946 -6.44325 33091 ft 451 kts 277°
2026-04-20 14:19 56.16186 -6.49924 33295 ft 450 kts 277°
2026-04-20 14:19 56.16424 -6.55521 33495 ft 450 kts 277°
2026-04-20 14:19 56.16660 -6.61064 33683 ft 450 kts 277°
2026-04-20 14:20 56.16900 -6.66666 33874 ft 450 kts 277°
2026-04-20 14:20 56.17137 -6.72267 34047 ft 450 kts 277°
2026-04-20 14:20 56.17368 -6.77867 34220 ft 450 kts 277°
2026-04-20 14:20 56.17597 -6.83475 34375 ft 450 kts 277°